Weather reports worldwide

Advertisment
Deuselbach, Germany (10615): temperature & dewpoint: 12.01.2018 07:00:00 - 18.01.2018 07:00:00 (CET)Deuselbach, Germany (10615): temperature 5cm & temperature -5cm: 12.01.2018 07:00:00 - 18.01.2018 07:00:00 (CET)Deuselbach, Germany (10615): temperature -20cm & temperature -100cm: 12.01.2018 07:00:00 - 18.01.2018 07:00:00 (CET)Deuselbach, Germany (10615): wind speed & gusts: 12.01.2018 07:00:00 - 18.01.2018 07:00:00 (CET)Deuselbach, Germany (10615): wind direction: 12.01.2018 07:00:00 - 18.01.2018 07:00:00 (CET)Deuselbach, Germany (10615): reduced air pressure: 12.01.2018 07:00:00 - 18.01.2018 07:00:00 (CET)Deuselbach, Germany (10615): visibility: 12.01.2018 07:00:00 - 18.01.2018 07:00:00 (CET)Deuselbach, Germany (10615): sunshine duration: 12.01.2018 07:00:00 - 18.01.2018 07:00:00 (CET)Deuselbach, Germany (10615): precipitation: 12.01.2018 07:00:00 - 18.01.2018 07:00:00 (CET)
Date & Time tt [°C] td [°C] tt 5cm [°C] tt -5cm [°C] tt -20cm [°C] tt -100cm [°C] ff [km/h] ff [kn] fx [km/h] fx [kn] dd ppp [hPa] vv [km] sd [min] rr [mm]
18.01.2018 07:00:00 1,4 0,0 0,6 0,8 1,7 5,0 43 23 72 39 SW 1002,0 7 0 0,5
18.01.2018 06:00:00 1,1 0,0 0,2 0,8 1,7 5,0 33 18 53 28 SSW 1003,5 2,2 0 1,4
18.01.2018 05:00:00 1,5 0,3 0,7 0,8 1,7 5,0 26 14 43 23 SW 1005,8 6 0 0,7
18.01.2018 04:00:00 1,8 0,4 1,0 0,7 1,8 5,0 26 14 49 26 SW 1008,0 20 0 0,0
18.01.2018 03:00:00 1,7 0,4 1,0 0,7 1,8 5,0 27 15 46 25 SW 1009,5 23 0 0,1
18.01.2018 02:00:00 1,1 0,1 0,6 0,7 1,8 5,0 21 11 43 23 WSW 1011,0 21 0 0,2
18.01.2018 01:00:00 0,7 -0,2 0,1 0,7 1,8 5,1 23 12 49 26 WSW 1011,8 1,8 0 0,1
18.01.2018 00:00:00 0,7 -0,7 0,4 0,7 1,8 5,1 27 15 48 26 W 1012,3 44 0 0,0
17.01.2018 23:00:00 1,0 -0,9 0,6 0,7 1,9 5,1 33 18 49 26 WSW 1012,2 39 0 0,0
17.01.2018 22:00:00 1,1 -1,0 0,4 0,7 1,9 5,1 26 14 46 25 WSW 1012,1 34 0 0,0
17.01.2018 21:00:00 1,3 -1,3 0,7 0,7 1,9 5,1 26 14 44 24 WSW 1011,9 25 0 0,0
17.01.2018 20:00:00 1,1 -1,9 0,0 0,8 2,0 5,1 38 20 53 28 W 1011,6 39 0 0,0
17.01.2018 19:00:00 1,3 -2,5 0,1 0,8 2,0 5,1 32 17 46 25 W 1011,2 37 0 0,0
17.01.2018 18:00:00 1,4 -1,8 0,6 0,9 2,0 5,1 32 17 56 30 W 1010,4 43 0 0,0
17.01.2018 17:00:00 1,5 -1,9 0,9 0,9 2,1 5,1 31 17 55 30 W 1009,5 30 21 0,0
17.01.2018 16:00:00 0,8 -1,2 0,2 1,0 2,1 5,1 40 22 60 33 W 1008,6 26 4 0,0
17.01.2018 15:00:00 1,4 -1,9 0,6 1,0 2,1 5,1 30 16 59 32 W 1007,7 29 0 0,0
17.01.2018 14:00:00 1,1 -2,1 0,3 1,0 2,1 5,1 44 24 67 36 W 1006,9 34 0 0,0
17.01.2018 13:00:00 0,7 -2,4 0,1 1,2 2,1 5,1 37 20 59 32 W 1006,4 21 0 0,0
17.01.2018 12:00:00 0,4 -2,6 -0,2 1,0 2,1 5,1 35 19 51 28 W 1006,1 33 1 0,0
17.01.2018 11:00:00 0,3 -2,9 -0,3 0,9 2,2 5,1 33 18 48 26 W 1005,1 33 2 0,0
17.01.2018 10:00:00 -0,3 -3,0 -0,9 0,9 2,2 5,1 29 16 46 25 W 1003,9 43 8 0,0
17.01.2018 09:00:00 -0,1 -2,6 -0,8 0,9 2,3 5,1 32 17 49 26 W 1002,4 61 0 0,0
17.01.2018 08:00:00 -0,1 -2,6 -1,0 0,9 2,3 5,1 35 19 66 36 W 1000,7 70 0 0,1
17.01.2018 07:00:00 0,4 -1,6 -0,1 1,0 2,4 5,1 45 24 66 35 W 999,2 64 0 0,3
17.01.2018 06:00:00 0,2 -0,6 0,0 1,0 2,5 5,1 30 16 51 27 WSW 998,2 0,9 0 0,0
17.01.2018 05:00:00 0,7 -0,7 0,0 1,1 2,6 5,1 33 18 48 26 W 997,9 70 0 0,0
17.01.2018 04:00:00 0,6 -0,2 0,0 1,1 2,6 5,1 34 18 51 28 W 997,5 40 0 0,1
17.01.2018 03:00:00 0,4 0,0 0,0 1,2 2,8 5,1 34 18 53 29 W 997,3 70 0 0,6
17.01.2018 02:00:00 0,2 -0,3 -0,1 1,3 2,9 5,1 24 13 50 27 WSW 996,7 1,3 0 0,5
17.01.2018 01:00:00 0,3 0,0 -0,1 1,5 3,0 5,1 16 9 31 17 WSW 997,5 3,7 0 1,9
17.01.2018 00:00:00 0,6 -0,1 0,0 1,9 3,0 5,1 28 15 46 25 WSW 997,6 1,2 0 0,5
16.01.2018 23:00:00 2,5 0,3 2,1 1,9 3,1 5,1 21 12 50 27 WSW 997,8 60 0 0,0
16.01.2018 22:00:00 2,1 0,2 1,8 1,7 3,3 5,1 27 14 50 27 WSW 998,8 70 0 0,0
16.01.2018 21:00:00 1,4 -1,0 0,3 1,9 3,4 5,1 27 15 48 26 WSW 998,9 70 0 0,0
16.01.2018 20:00:00 1,9 -0,9 0,9 2,4 3,6 5,1 32 17 44 24 WSW 998,3 70 0 0,0
16.01.2018 19:00:00 2,4 -0,7 1,6 2,9 3,7 5,1 29 15 49 27 WSW 998,6 70 0 0,0
16.01.2018 18:00:00 3,3 -0,4 2,7 3,2 3,7 5,1 33 18 61 33 WSW 998,5 70 0 0,0
16.01.2018 17:00:00 3,6 0,4 3,0 3,5 3,7 5,1 37 20 63 34 WSW 998,5 70 0 0,0
16.01.2018 16:00:00 3,8 0,9 3,3 3,7 3,7 5,1 31 17 57 31 WSW 997,9 61 2 0,0
16.01.2018 15:00:00 4,0 1,0 3,6 3,9 3,6 5,1 41 22 58 32 W 997,9 56 6 0,0
16.01.2018 14:00:00 4,3 1,0 4,3 3,8 3,5 5,1 38 20 58 31 W 997,9 63 1 0,0
16.01.2018 13:00:00 4,0 0,8 4,0 3,6 3,5 5,1 36 19 61 33 W 998,0 70 28 0,0
16.01.2018 12:00:00 3,5 0,4 3,4 3,3 3,5 5,1 41 22 61 33 WSW 997,5 62 36 0,2
16.01.2018 11:00:00 3,0 1,6 2,4 3,4 3,4 5,2 46 25 68 37 W 997,8 9 0 3,2
16.01.2018 10:00:00 4,3 2,8 3,8 3,5 3,4 5,2 32 17 55 30 WSW 996,8 17 0 0,0
16.01.2018 09:00:00 3,8 2,5 3,4 3,5 3,4 5,2 33 18 61 33 W 996,8 70 0 0,6
16.01.2018 08:00:00 4,8 3,1 4,4 3,5 3,3 5,2 38 21 61 33 W 996,0 70 0 0,0
16.01.2018 07:00:00 4,5 3,4 3,9 3,4 3,3 5,2 29 16 52 28 WSW 996,0 32 0 0,9
16.01.2018 06:00:00 4,8 3,2 4,1 3,4 3,2 5,2 33 18 54 29 WSW 996,1 70 0 0,6
16.01.2018 05:00:00 4,6 3,2 3,9 3,3 3,2 5,2 23 12 43 23 WSW 997,2 38 0 0,0
16.01.2018 04:00:00 4,3 2,7 3,8 3,3 3,1 5,3 27 14 56 31 WSW 998,1 32 0 0,1
16.01.2018 03:00:00 4,4 3,0 3,7 3,3 3,1 5,3 28 15 54 29 WSW 998,7 43 0 0,2
16.01.2018 02:00:00 4,8 3,0 4,0 3,3 3,0 5,3 33 18 63 34 WSW 998,8 70 0 0,1
16.01.2018 01:00:00 5,2 3,2 4,5 3,2 2,8 5,3 35 19 56 31 WSW 998,6 70 0 1,9
16.01.2018 00:00:00 4,9 4,2 4,5 2,9 2,8 5,3 30 16 59 32 WSW 998,4 3,8 0 1,3
15.01.2018 23:00:00 4,5 3,5 3,9 2,6 2,7 5,4 31 17 56 30 SW 998,4 13 0 0,1
15.01.2018 22:00:00 3,7 2,4 3,0 2,3 2,7 5,4 36 19 67 36 SSW 999,1 6 0 0,5
15.01.2018 21:00:00 2,8 1,4 2,1 2,3 2,7 5,4 34 18 64 35 SSW 1000,1 8 0 0,7
15.01.2018 20:00:00 2,5 1,3 1,9 2,4 2,6 5,4 29 16 59 32 SSW 1001,2 11 0 1,8
15.01.2018 19:00:00 2,9 1,7 2,2 2,5 2,6 5,4 32 17 60 33 SSW 1002,0 5 0 1,9
15.01.2018 18:00:00 3,4 2,1 2,7 2,5 2,5 5,4 31 17 63 34 SSW 1003,6 6 0 0,4
15.01.2018 17:00:00 3,5 2,2 2,8 2,4 2,4 5,4 24 13 49 26 SSW 1005,4 13 0 0,5
15.01.2018 16:00:00 3,5 1,7 2,8 2,4 2,3 5,4 26 14 56 30 SSW 1007,1 3,6 0 0,1
15.01.2018 15:00:00 3,8 0,8 3,7 2,3 2,1 5,4 28 15 53 28 S 1007,4 21 0 0,0
15.01.2018 14:00:00 3,6 1,1 3,9 1,9 2,0 5,5 26 14 46 25 SSW 1010,7 12 0 0,0
15.01.2018 13:00:00 3,2 1,2 3,1 1,3 1,9 5,5 25 14 53 29 SSW 1012,7 10 0 0,0
15.01.2018 12:00:00 3,2 0,9 3,2 0,7 1,9 5,5 23 13 61 33 SSW 1013,7 11 0 0,0
15.01.2018 11:00:00 3,1 1,6 2,5 0,7 2,0 5,5 15 8 36 19 SSW 1015,0 8 0 0,0
15.01.2018 10:00:00 2,6 0,9 2,2 0,7 2,0 5,5 18 10 31 17 SSW 1016,1 7 0 0,0
15.01.2018 09:00:00 2,3 0,5 1,7 0,7 2,0 5,5 12 6 23 12 SW 1016,6 8 0 0,0
15.01.2018 08:00:00 2,2 0,2 1,7 0,7 2,0 5,5 11 6 23 12 WSW 1017,1 9 0 0,0
15.01.2018 07:00:00 2,5 0,2 1,7 0,7 2,1 5,5 14 7 26 14 SW 1017,4 11 0 0,0
15.01.2018 06:00:00 2,7 -0,1 1,8 0,7 2,1 5,5 13 7 23 13 SSW 1017,6 13 0 0,0
15.01.2018 05:00:00 1,9 -0,4 0,5 0,7 2,1 5,5 8 4 19 11 SW 1018,5 11 0 0,0
15.01.2018 04:00:00 2,1 -0,5 1,3 0,7 2,2 5,5 13 7 19 10 SW 1019,0 12 0 0,0
15.01.2018 03:00:00 0,3 -1,6 -1,4 0,7 2,2 5,6 8 5 17 9 WSW 1020,3 10 0 0,0
15.01.2018 02:00:00 0,9 -2,0 -1,0 0,8 2,3 5,6 10 5 18 10 WSW 1020,3 13 0 0,0
15.01.2018 01:00:00 -0,4 -2,3 -3,1 0,8 2,3 5,6 6 3 13 7 NNE 1021,4 12 0 0,0
15.01.2018 00:00:00 -0,6 -2,5 -2,5 0,9 2,4 5,6 8 4 14 7 NW 1021,7 12 0 0,0
14.01.2018 23:00:00 0,5 -2,2 -1,4 0,9 2,5 5,6 9 5 21 11 SE 1021,5 13 0 0,0
14.01.2018 22:00:00 -0,4 -2,9 -2,1 1,0 2,6 5,6 6 3 29 16 ESE 1022,2 12 0 0,0
14.01.2018 21:00:00 -0,1 -2,6 -1,4 1,1 2,6 5,6 18 10 30 16 SE 1022,0 14 0 0,0
14.01.2018 20:00:00 -0,2 -2,2 -1,3 1,2 2,8 5,6 18 10 32 18 SE 1022,0 10 0 0,0
14.01.2018 19:00:00 -0,1 -2,0 -1,3 1,4 2,9 5,6 15 8 29 16 SE 1022,0 10 0 0,0
14.01.2018 18:00:00 0,1 -1,9 -0,8 1,6 3,0 5,6 19 11 31 17 SE 1021,9 10 0 0,0
14.01.2018 17:00:00 0,2 -1,8 -1,0 2,2 3,0 5,6 15 8 36 20 SE 1021,7 11 38 0,0
14.01.2018 16:00:00 0,6 -1,5 0,7 2,8 2,8 5,6 19 10 34 18 ESE 1021,5 10 60 0,0
14.01.2018 15:00:00 1,3 -1,0 2,6 2,8 2,6 5,7 20 11 32 17 SE 1021,2 10 60 0,0
14.01.2018 14:00:00 1,5 -1,1 3,3 2,3 2,5 5,7 17 9 37 20 SE 1021,2 11 60 0,0
14.01.2018 13:00:00 1,6 -0,4 3,7 1,6 2,4 5,7 20 11 36 19 ESE 1021,2 7 58 0,0
14.01.2018 12:00:00 1,3 -0,8 2,7 1,0 2,4 5,7 18 10 35 19 ESE 1021,7 9 27 0,0
14.01.2018 11:00:00 0,8 -0,8 0,8 0,9 2,5 5,7 16 9 31 17 ESE 1021,9 9 1 0,0
14.01.2018 10:00:00 0,6 -0,8 0,5 1,0 2,5 5,7 13 7 42 23 E 1021,7 8 0 0,0
14.01.2018 09:00:00 0,5 -0,7 -0,2 1,0 2,6 5,7 23 13 45 25 ESE 1021,2 7 0 0,0
14.01.2018 08:00:00 0,6 -0,7 -0,3 1,0 2,6 5,7 26 14 44 24 ESE 1021,0 8 0 0,0
14.01.2018 07:00:00 0,7 -0,6 -0,3 1,0 2,7 5,7 26 14 44 24 ESE 1020,8 7 0 0,0
14.01.2018 06:00:00 0,7 -0,7 -0,3 1,1 2,8 5,7 25 14 42 23 ESE 1020,7 8 0 0,0
14.01.2018 05:00:00 0,9 -0,7 -0,3 1,1 2,9 5,7 27 14 45 24 SE 1020,6 9 0 0,0
14.01.2018 04:00:00 1,1 -0,8 0,0 1,2 3,0 5,7 25 14 45 25 SE 1020,6 10 0 0,0
14.01.2018 03:00:00 1,4 -0,8 0,2 1,3 3,1 5,7 25 13 44 24 SE 1020,7 11 0 0,0
14.01.2018 02:00:00 1,4 -0,7 0,2 1,4 3,3 5,7 29 16 50 27 SE 1020,8 10 0 0,0
14.01.2018 01:00:00 1,6 -0,6 0,5 1,7 3,4 5,7 30 16 51 28 SE 1020,6 11 0 0,0
14.01.2018 00:00:00 1,9 -0,5 0,7 2,0 3,5 5,7 28 15 50 27 SE 1021,0 11 0 0,0
13.01.2018 23:00:00 2,1 -0,6 0,5 2,4 3,6 5,7 15 8 40 22 ESE 1021,5 13 0 0,0
13.01.2018 22:00:00 2,5 -0,5 2,1 2,6 3,6 5,7 16 9 34 18 ESE 1021,5 14 0 0,0
13.01.2018 21:00:00 2,5 -0,4 2,2 2,7 3,7 5,7 10 5 37 20 NNW 1021,5 13 0 0,0
13.01.2018 20:00:00 2,4 -0,3 2,0 2,7 3,7 5,7 16 8 29 16 NE 1022,1 13 0 0,0
13.01.2018 19:00:00 2,4 -0,4 2,1 2,8 3,7 5,7 16 9 34 19 E 1022,2 15 0 0,0
13.01.2018 18:00:00 2,5 -0,2 2,1 2,9 3,8 5,7 13 7 27 15 ENE 1022,6 15 0 0,0
13.01.2018 17:00:00 2,5 -0,2 2,2 3,0 3,8 5,7 12 7 39 21 ENE 1022,5 15 0 0,0
13.01.2018 16:00:00 2,4 -0,1 2,2 3,2 3,7 5,7 16 8 36 20 E 1022,8 14 0 0,0
13.01.2018 15:00:00 2,3 -0,3 2,4 3,2 3,7 5,7 13 7 29 16 ENE 1023,5 14 0 0,0
13.01.2018 14:00:00 2,5 -0,1 3,1 3,1 3,6 5,7 14 7 24 13 ENE 1024,1 13 0 0,0
13.01.2018 13:00:00 2,1 -0,5 2,8 2,7 3,6 5,7 10 5 21 12 ENE 1025,1 14 0 0,0
13.01.2018 12:00:00 1,3 -0,5 1,5 2,5 3,7 5,7 11 6 28 15 E 1026,0 10 0 0,0
13.01.2018 11:00:00 1,3 -0,5 1,3 2,5 3,7 5,7 24 13 46 25 ESE 1025,9 9 0 0,0
13.01.2018 10:00:00 1,0 -0,6 1,2 2,5 3,8 5,7 28 15 41 22 ESE 1025,5 7 0 0,0
13.01.2018 09:00:00 0,9 -0,7 0,9 2,5 3,9 5,7 19 10 36 19 ESE 1025,7 8 0 0,0
13.01.2018 08:00:00 0,9 -0,6 0,8 2,6 4,0 5,7 11 6 28 15 E 1025,7 7 0 0,0
13.01.2018 07:00:00 0,9 -0,2 0,9 2,7 4,1 5,7 9 5 31 17 E 1025,7 6 0 0,0
13.01.2018 06:00:00 1,3 0,1 1,1 2,8 4,2 5,7 14 7 29 16 SE 1025,8 6 0 0,0
13.01.2018 05:00:00 1,8 0,3 0,9 3,0 4,3 5,7 10 5 23 13 ESE 1025,8 8 0 0,0
13.01.2018 04:00:00 2,4 0,5 1,8 3,2 4,4 5,7 14 7 29 16 ESE 1025,8 10 0 0,0
13.01.2018 03:00:00 2,8 0,6 1,4 3,5 4,5 5,7 8 4 26 14 E 1026,3 12 0 0,0
13.01.2018 02:00:00 3,2 1,2 2,7 3,6 4,5 5,7 7 4 18 10 E 1026,3 12 0 0,0
13.01.2018 01:00:00 3,4 1,2 2,8 3,7 4,6 5,7 13 7 24 13 E 1026,5 12 0 0,0
13.01.2018 00:00:00 3,2 1,6 2,4 3,8 4,6 5,7 6 3 13 7 ENE 1026,7 11 0 0,0
12.01.2018 23:00:00 3,4 1,6 3,0 3,9 4,7 5,7 11 6 23 12 E 1026,9 15 0 0,0
12.01.2018 22:00:00 3,8 1,7 2,9 3,9 4,8 5,7 8 4 25 14 E 1026,6 13 0 0,0
12.01.2018 21:00:00 3,2 2,0 2,2 4,1 4,9 5,7 9 5 14 8 E 1026,4 15 0 0,0
12.01.2018 20:00:00 3,5 2,1 2,1 4,4 5,0 5,7 9 5 21 12 ENE 1026,4 14 0 0,0
12.01.2018 19:00:00 4,0 2,9 2,9 4,6 5,0 5,7 9 5 13 7 E 1026,1 7 0 0,0
12.01.2018 18:00:00 4,1 3,0 3,0 4,8 5,0 5,7 6 3 11 6 E 1026,2 7 0 0,0
12.01.2018 17:00:00 4,3 3,6 3,9 5,0 5,0 5,7 5 3 11 6 ENE 1026,1 3,5 0 0,0
12.01.2018 16:00:00 4,5 3,7 4,5 5,2 4,9 5,7 8 4 13 7 N 1025,9 3,6 0 0,0
12.01.2018 15:00:00 4,7 3,7 4,9 5,2 4,8 5,7 8 5 13 7 NNE 1025,5 4,3 0 0,0
12.01.2018 14:00:00 4,7 3,9 5,0 5,0 4,8 5,7 8 4 10 6 N 1025,6 3,5 0 0,0
12.01.2018 13:00:00 4,6 4,0 4,8 4,8 4,7 5,7 8 4 12 6 N 1025,8 3,1 0 0,0
12.01.2018 12:00:00 4,3 3,7 4,4 4,6 4,7 5,7 9 5 11 6 N 1026,2 3,1 0 0,0
12.01.2018 11:00:00 4,4 3,6 4,4 4,4 4,6 5,7 6 4 10 5 N 1026,2 3,6 0 0,0
12.01.2018 10:00:00 4,2 3,4 4,1 4,2 4,7 5,7 3 2 8 5 N 1025,6 3,1 0 0,0
12.01.2018 09:00:00 4,0 3,3 3,4 4,1 4,7 5,7 3 2 7 4 N 1025,2 3,2 0 0,0
12.01.2018 08:00:00 4,0 3,2 3,6 4,2 4,7 5,7 4 2 8 5 E 1024,8 4,7 0 0,0
12.01.2018 07:00:00 3,9 3,6 3,6 4,2 4,7 5,7 4 2 8 5 N 1024,4 3,3 0 0,0

tt = temperature
td = dewpoint
tt 5cm = temperature 5cm
tt -5cm = temperature -5cm
tt -20cm = temperature -20cm
tt -100cm = temperature -100cm
ff = wind speed
fx = gusts
dd = wind direction
ppp = reduced air pressure
vv = visibility
sd = sunshine duration
rr = precipitation

Next stations